Location: Celina Division
(33.3022°N, 96.7580°W)
Time: 18:30:43
(UTC+00:00)

First-Move - Visible Passes

Search period start: 28 March 2023 00:00
Search period end: 07 April 2023 00:00
Orbit: 563 x 644 km, 97.7° (Epoch: 28 March)

Date Brightness Start Highest point End Pass type
(mag) Time Alt. Az. Time Alt. Az. Time Alt. Az.
28 Mar ? 09:41:38 10° NNE 09:43:18 22° NE 09:43:18 22° NE visible
28 Mar ? 11:19:58 10° NW 11:20:08 10° NW 11:20:08 10° NW visible
29 Mar ? 09:53:46 10° NNE 09:55:49 28° NNE 09:55:49 28° NNE visible
30 Mar ? 10:06:00 10° N 10:08:18 33° N 10:08:18 33° N visible
31 Mar ? 10:18:16 10° N 10:20:47 34° NNW 10:20:47 34° NNW visible
01 Apr ? 10:30:38 10° N 10:33:14 30° NW 10:33:14 30° NW visible
02 Apr ? 09:08:01 10° NE 09:08:50 13° ENE 09:08:50 13° ENE visible
02 Apr ? 10:43:04 10° NNW 10:45:40 25° NW 10:45:40 25° NW visible
03 Apr ? 09:19:37 10° NE 09:21:15 18° ENE 09:21:15 18° ENE visible
03 Apr ? 10:55:39 10° NNW 10:58:05 19° WNW 10:58:05 19° WNW visible
04 Apr ? 09:31:25 10° NNE 09:33:39 26° ENE 09:33:39 26° ENE visible
04 Apr ? 11:08:29 10° NW 11:10:28 14° WNW 11:10:28 14° WNW visible
05 Apr ? 09:43:20 10° NNE 09:46:01 36° NE 09:46:01 36° NE visible
06 Apr ? 09:55:20 10° NNE 09:58:23 49° NNE 09:58:23 49° NNE visible
